Regional Weather Roundup
Issued by NWS

Home | Current Version | Previous Version | Text Only | Print | Product List | Glossary On
Versions: 1 2 3 4 5 6 7 8 9 10 11 12 13 14 15 16 17 18 19 20 21 22 23 24 25 26 27 28 29 30 31 32 33 34 35 36 37 38 39 40 41 42 43 44 45 46 47 48 49 50
000
ASUS43 KDTX 261410
RWRMI
MICHIGAN HOURLY REGIONAL WEATHER ROUNDUP
NATIONAL WEATHER SERVICE DETROIT/PONTIAC MI
1000 AM EDT SUN APR 26 2015

NOTE: "FAIR" INDICATES FEW OR NO CLOUDS BELOW 12,000 FEET WITH NO
SIGNIFICANT WEATHER AND/OR OBSTRUCTION TO VISIBILITY.

MIZ047>049-052>055-059>063-066>070-074>076-081>083-261500-
SOUTHEAST LOWER MICHIGAN

CITY           SKY/WX    TMP DP  RH WIND       PRES   REMARKS
ADRIAN         SUNNY     47  29  49 NE15      29.91S
ALMA           SUNNY     46  28  49 NE6       29.96S
ANN ARBOR      SUNNY     49  28  44 NE9       29.91R
BAD AXE        SUNNY     44  32  62 NE6       29.95S
DETROIT CITY   SUNNY     48  29  47 NE13      29.91S
DETROIT        SUNNY     50  28  42 NE13      29.91S
FLINT          SUNNY     49  29  46 NE7       29.94F
GROSSE ILE     SUNNY     48  30  49 NE9       29.89S
HILLSDALE      SUNNY     46  28  49 NE8       29.91R
HOWELL         SUNNY     46  28  50 NE8       29.92S

CITY           SKY/WX    TMP DP  RH WIND       PRES   REMARKS
JACKSON        SUNNY     46  29  51 NE12      29.93R
LAMBERTVILLE   SUNNY     48  30  49 N7        29.90S
LANSING        SUNNY     45  29  53 NE9       29.95S
LAPEER         NOT AVBL
MASON          SUNNY     45  28  53 NE10      29.93F
MONROE         SUNNY     46  28  49 CALM      29.88S
MT. CLEMENS    SUNNY     48  31  50 N12       29.88S
PONTIAC        SUNNY     47  27  45 N12       29.91S
PORT HOPE        N/A     42  34  73 NW7       29.94S
PORT HURON     SUNNY     46  32  57 N8        29.92S
TRI CITIES     SUNNY     46  32  58 N7        29.96S
YPSILANTI      SUNNY     52  27  38 NE12      29.91R
$$
MIZ043>046-050>051-056>058-064>065-071>073-077>080-261500-
SOUTHWEST LOWER MICHIGAN

CITY           SKY/WX    TMP DP  RH WIND       PRES   REMARKS
BATTLE CREEK   SUNNY     47  27  45 NE12      29.95R
BENTON HARBOR  SUNNY     45  33  63 NW8       29.98R
BIG RAPIDS     SUNNY     46  28  49 N5        29.97S
COLDWATER      SUNNY     45  29  53 N9        29.94R
HOLLAND        SUNNY     50  27  40 N9        29.98S
GRAND RAPIDS   SUNNY     48  26  42 NE8       29.96S
KALAMAZOO      SUNNY     48  27  44 N9        29.95S
MARSHALL       SUNNY     45  27  50 N7        29.94R
MUSKEGON       SUNNY     50  25  37 NE8       29.99R
$$
MIZ016>042-261500-
NORTHERN LOWER MICHIGAN

CITY           SKY/WX    TMP DP  RH WIND       PRES   REMARKS
ALPENA         CLOUDY    46  30  53 N8        29.98S
BEAVER ISLAND  SUNNY     43  29  56 N7        30.03S
BELLAIRE       SUNNY     43  28  54 NE5       30.01F
CADILLAC       SUNNY     46  28  49 N7        29.97R
CHARLEVOIX     SUNNY     38  32  80 NW5       30.05S
FRANKFORT      SUNNY     46  27  48 NW5       30.02R
GAYLORD        SUNNY     44  26  49 VRB6      29.97S
GRAYLING       SUNNY     47  27  45 NE7       29.98S
HARBOR SPRINGS SUNNY     38  29  68 SW3       30.01S
HOUGHTON LAKE  SUNNY     47  26  44 N7        29.97S
MANISTEE       SUNNY     43  28  56 NW3       30.02S
OSCODA         MOSUNNY   47  30  51 N5        29.96S
PELLSTON       MOSUNNY   45  28  51 N8        30.01S
TRAVERSE CITY  SUNNY     41  30  65 VRB3      30.01R
$$
MIZ007>008-015-261500-
EASTERN UPPER MICHIGAN

CITY           SKY/WX    TMP DP  RH WIND       PRES   REMARKS
KINROSS        MOSUNNY   41  30  65 N9        30.01S
MACKINAC ISLAN CLOUDY    39  29  66 N7        30.01S
NEWBERRY       SUNNY     40  31  69 N8        30.03R
S. S. MARIE    CLOUDY    40  28  62 NW6       30.01S
$$
MIZ004>006-011>014-085-261500-
CENTRAL UPPER MICHIGAN

CITY           SKY/WX    TMP DP  RH WIND       PRES   REMARKS
MANISTIQUE     SUNNY     46  31  57 N9        30.03S
ESCANABA       SUNNY     46  27  46 N8        30.06R
MENOMINEE      SUNNY     43  23  45 N7        30.06R
SAWYER-GWINN   SUNNY     39  27  60 NE13      30.07R
$$
MIZ001>003-009>011-084-261500-
WESTERN UPPER MICHIGAN

CITY           SKY/WX    TMP DP  RH WIND       PRES   REMARKS
IRON MOUNTAIN  SUNNY     45  22  40 NW5       30.06R
HOUGHTON       SUNNY     45  26  47 NE8       30.10R
COPPER HARBOR    N/A     37  31  78 NE3       30.14R
IRONWOOD       SUNNY     37  28  70 NW3       30.10S
$$

ABBREVIATIONS USED IN REMARKS
   TC - TEMPERATURE IN CELSIUS
  WCI - WIND CHILL INDEX
   HX - HEAT INDEX
  VSB - VISIBILITY



USA.gov is the U.S. government's official web portal to all federal, state and local government web resources and services.